Wind_Speed
6 4 6 8 10 2 5 12 17 15 15 10 11 9 8 11 11 12 16 16 15 18
6 6 6 8 9 5 9 11 16 14 15 10 11 9 8 10 10 13 16 18 21 23
3 7 6 6 7 8 8 9 13 13 12 12 12 11 9 9 10 10 16 17 24 22
0 4 5 6 6 6 7 9 11 12 13 15 16 12 10 12 14 15 14 13 16 19
3 2 4 7 5 4 7 11 12 16 16 18 17 14 14 16 14 16 17 15 15 21
4 3 5 7 6 7 9 12 14 16 16 17 17 14 13 13 15 14 13 14 17 22
4 8 8 8 9 11 13 14 16 15 16 16 15 14 14 15 14 13 11 12 18 22
11 13 8 13 13 16 18 15 16 17 16 14 12 12 13 15 12 11 12 15 19 26
15 11 10 12 12 16 17 13 12 15 13 10 9 10 11 16 10 14 20 18 20 21
16 15 15 11 10 12 12 10 10 13 12 12 11 12 16 15 13 16 19 21 23 22
19 18 15 15 12 11 8 6 7 12 12 13 13 13 18 18 15 16 19 20 23 28
23 22 19 15 14 11 12 4 6 8 12 14 15 16 20 19 18 19 19 19 20 23
25 23 21 19 15 15 13 7 11 11 11 15 16 16 16 17 18 19 19 18 20 20
18 23 23 21 18 15 15 12 12 14 16 17 15 15 15 16 17 16 16 15 17 17
Wind_Direction
359 356 15 24 7 17 146 167 174 179 172 164 170 168 174 174 185 179 187 182 189 190
18 25 20 18 23 78 132 150 174 176 178 164 164 176 181 185 180 178 178 179 172 169
51 30 32 25 45 93 123 153 171 180 180 178 170 174 174 176 168 175 175 179 178 186
155 21 52 45 71 102 96 141 159 163 159 159 165 162 160 159 153 164 161 160 165 169
166 33 61 53 63 116 103 126 136 152 149 153 160 161 154 154 155 156 158 157 157 165
176 90 82 62 60 132 130 129 129 144 143 149 156 162 167 154 137 148 161 161 163 165
166 119 97 75 86 132 134 128 133 138 144 151 156 164 170 171 159 158 152 160 171 173
150 125 109 95 90 117 126 123 136 142 144 154 159 173 180 186 187 191 178 160 167 166
156 163 149 114 93 127 130 125 139 156 156 160 162 169 172 167 155 157 152 149 148 156
167 161 149 149 135 121 117 109 114 142 156 149 135 149 155 158 161 152 148 143 151 152
171 168 162 166 175 166 137 103 129 139 151 152 140 144 152 146 149 152 147 152 153 155
175 174 178 173 172 174 163 142 155 144 143 148 147 149 150 148 143 142 151 149 153 163
184 183 186 190 185 175 177 177 169 166 154 147 141 148 156 159 160 159 160 159 161 168
181 186 192 189 193 202 199 186 171 176 173 170 163 153 155 161 162 160 158 153 163 166
Height
1459 1457 1455 1453 1451 1450 1450 1451 1453 1456 1460 1461 1463 1464 1465 1466 1468 1469 1470 1473 1476 1478
1460 1458 1456 1454 1452 1451 1451 1452 1455 1458 1461 1463 1464 1465 1466 1467 1469 1470 1472 1474 1477 1478
1461 1459 1457 1455 1453 1453 1453 1454 1456 1459 1461 1464 1465 1466 1467 1469 1471 1472 1474 1476 1478 1481
1461 1460 1459 1457 1456 1455 1455 1455 1457 1459 1461 1464 1466 1468 1470 1472 1474 1475 1477 1479 1481 1482
1462 1461 1460 1459 1457 1457 1457 1457 1459 1460 1463 1466 1468 1470 1472 1474 1477 1479 1480 1482 1484 1486
1462 1463 1462 1460 1458 1458 1459 1460 1462 1463 1466 1468 1471 1473 1476 1478 1480 1482 1484 1485 1487 1490
1464 1464 1464 1463 1460 1460 1462 1464 1465 1468 1470 1472 1474 1476 1479 1481 1483 1486 1488 1488 1490 1493
1465 1466 1466 1466 1464 1463 1466 1467 1469 1470 1473 1475 1477 1478 1480 1483 1485 1487 1489 1491 1494 1497
1465 1467 1468 1469 1469 1469 1470 1472 1472 1473 1475 1477 1478 1480 1483 1485 1487 1488 1491 1494 1497 1501
1465 1467 1469 1471 1472 1473 1475 1475 1476 1477 1478 1480 1481 1482 1485 1488 1490 1493 1496 1498 1499 1504
1465 1467 1470 1472 1474 1476 1477 1479 1480 1480 1482 1483 1485 1486 1489 1491 1493 1495 1498 1501 1504 1507
1464 1467 1470 1471 1474 1477 1479 1480 1481 1483 1485 1486 1488 1490 1493 1495 1498 1500 1503 1507 1510 1513
1463 1466 1469 1472 1474 1477 1480 1482 1483 1485 1487 1489 1491 1493 1496 1498 1500 1503 1506 1509 1513 1516
1461 1465 1469 1472 1475 1477 1479 1482 1484 1487 1489 1491 1493 1495 1498 1500 1503 1505 1508 1510 1513 1516